Weather History for KTLH - January, 2014

Change the Weather History Date:

Tuesday, January 28, 2014

  Actual Average Record
Temperature  
Mean Temperature 49 °F 52 °F  
Max Temperature 60 °F 64 °F 80 °F (1995)
Min Temperature 37 °F 39 °F 13 °F (1986)
Degree Days  
Heating Degree Days 16    
Month to date heating degree days 446  
Since 1 July heating degree days 845  
Cooling Degree Days 0    
Month to date cooling degree days 2  
Year to date cooling degree days 2  
Moisture  
Dew Point 42 °F    
Average Humidity 70    
Maximum Humidity 93    
Minimum Humidity 46    
Precipitation  
Precipitation 0.33 in 0.16 in 2.25 in (1929)
Month to date precipitation 3.50 3.86  
Year to date precipitation 3.50 3.86  
Sea Level Pressure  
Sea Level Pressure 30.05 in    
Wind  
Wind Speed 8 mph (North)    
Max Wind Speed 15 mph    
Max Gust Speed 21 mph    
Visibility 8 miles    
Events Rain    
T = Trace of Precipitation, MM = Missing Value Source: NWS Daily Summary

Daily Weather History Graph

Daily Weather History Graph

Search for Another Location

Airport or City:

Trip Planner

Search our weather history database for the weather conditions in past years. The results will help you decide how hot, cold, wet, or windy it might be!

Date:

Astronomy

Jan. 28, 2014 Rise Set
Actual Time 7:30 AM EST 6:10 PM EST
Civil Twilight 7:05 AM EST 6:35 PM EST
Nautical Twilight 6:36 AM EST 7:04 PM EST
Astronomical Twilight 6:07 AM EST 7:33 PM EST
Moon 5:08 AM EST (1/28) 4:01 PM EST (1/28)
Length of Visible Light 11h 30m
Length of Day
10h 40m
Waning Crescent, 7% of the Moon is Illuminated
Jan 28
Waning Crescent
Jan 30
New
Feb 6
First Quarter
Feb 14
Full
Feb 22
Last Quarter

Hourly Weather History & Observations

Time (EST) Temp. Windchill Dew Point Humidity Pressure Visibility Wind Dir Wind Speed Gust Speed Precip Events Conditions
12:18 AM 60.8 °F - 55.4 °F 82% 30.00 in 9.0 mi North 3.5 mph - N/A   Overcast
12:53 AM 59.0 °F - 55.9 °F 90% 29.99 in 10.0 mi Calm Calm - N/A   Overcast
1:39 AM 59.0 °F - 55.4 °F 88% 30.00 in 10.0 mi NNW 4.6 mph - N/A   Overcast
1:53 AM 59.0 °F - 55.0 °F 87% 30.00 in 10.0 mi North 5.8 mph - N/A   Overcast
2:39 AM 59.0 °F - 55.4 °F 88% 29.99 in 8.0 mi NNE 4.6 mph - N/A   Overcast
2:53 AM 57.9 °F - 55.0 °F 90% 29.99 in 5.0 mi North 5.8 mph - N/A   Overcast
3:03 AM 57.2 °F - 55.4 °F 94% 29.99 in 4.0 mi NE 5.8 mph - N/A   Overcast
3:14 AM 57.2 °F - 53.6 °F 88% 29.98 in 9.0 mi NNE 4.6 mph - N/A   Overcast
3:21 AM 57.2 °F - 53.6 °F 88% 29.99 in 10.0 mi North 4.6 mph - N/A   Overcast
3:53 AM 57.9 °F - 54.0 °F 87% 29.99 in 10.0 mi North 5.8 mph - N/A   Overcast
4:53 AM 57.0 °F - 53.1 °F 87% 30.00 in 10.0 mi North 6.9 mph - N/A   Overcast
5:16 AM 57.2 °F - 53.6 °F 88% 30.00 in 10.0 mi NNE 6.9 mph - N/A   Overcast
5:29 AM 55.4 °F - 48.2 °F 77% 30.00 in 10.0 mi North 10.4 mph - N/A   Overcast
5:53 AM 53.1 °F - 46.9 °F 80% 30.01 in 10.0 mi North 9.2 mph 16.1 mph N/A   Overcast
6:53 AM 51.1 °F - 44.1 °F 77% 30.05 in 10.0 mi North 11.5 mph - N/A   Overcast
7:53 AM 50.0 °F - 41.0 °F 71% 30.05 in 10.0 mi NNE 9.2 mph - N/A   Overcast
8:53 AM 48.9 °F - 37.9 °F 66% 30.08 in 10.0 mi North 6.9 mph - N/A   Overcast
9:53 AM 48.9 °F - 34.0 °F 56% 30.10 in 10.0 mi North 6.9 mph - N/A   Overcast
10:01 AM 48.2 °F - 33.8 °F 58% 30.10 in 10.0 mi North 5.8 mph - N/A   Overcast
10:53 AM 50.0 °F - 32.0 °F 50% 30.12 in 10.0 mi NNE 8.1 mph - N/A   Overcast
11:53 AM 48.9 °F - 28.9 °F 46% 30.12 in 10.0 mi North 9.2 mph - N/A   Overcast
12:53 PM 48.0 °F - 28.9 °F 48% 30.10 in 10.0 mi North 9.2 mph - N/A   Overcast
1:53 PM 46.9 °F - 32.0 °F 56% 30.06 in 10.0 mi North 8.1 mph - 0.00 in   Overcast
2:53 PM 48.9 °F - 30.9 °F 50% 30.05 in 10.0 mi North 8.1 mph - N/A   Overcast
3:53 PM 46.9 °F - 30.0 °F 52% 30.03 in 10.0 mi North 9.2 mph - N/A   Overcast
4:53 PM 46.0 °F 41.4 °F 30.0 °F 54% 30.04 in 10.0 mi North 9.2 mph - N/A   Overcast
5:44 PM 39.2 °F 34.2 °F 35.6 °F 87% 30.07 in 1.0 mi Variable 6.9 mph - 0.03 in Rain Heavy Rain
5:53 PM 39.0 °F 32.8 °F 35.1 °F 86% 30.07 in 1.0 mi North 9.2 mph - 0.10 in Rain Heavy Rain
6:41 PM 39.2 °F 35.0 °F 35.6 °F 87% 30.09 in 6.0 mi North 5.8 mph - 0.08 in Rain Light Rain
6:53 PM 39.9 °F 33.9 °F 36.0 °F 86% 30.10 in 5.0 mi NNW 9.2 mph - 0.08 in Rain Light Rain
7:53 PM 39.0 °F 34.0 °F 35.1 °F 86% 30.12 in 7.0 mi North 6.9 mph - 0.02 in Rain Light Rain
8:53 PM 37.9 °F 32.7 °F 35.1 °F 89% 30.11 in 6.0 mi North 6.9 mph - 0.05 in Rain Light Rain
9:53 PM 37.9 °F 30.9 °F 34.0 °F 86% 30.14 in 7.0 mi NNW 10.4 mph - 0.01 in Rain Light Rain
10:53 PM 37.0 °F 28.5 °F 33.1 °F 86% 30.14 in 8.0 mi North 13.8 mph 18.4 mph 0.05 in Rain Light Rain
11:16 PM 37.4 °F 30.3 °F 33.8 °F 87% 30.14 in 9.0 mi NNW 10.4 mph - 0.01 in   Overcast
11:53 PM 37.0 °F 31.0 °F 33.1 °F 86% 30.14 in 6.0 mi North 8.1 mph - 0.02 in Rain Rain